カタログに戻る

FSKL5695-11

運用中アマチュア無線SSO
NORAD 64888·PAYLOAD·🇷🇺 Russia
この衛星名は、まだ公式ソースで確認されていません。

打ち上げ Jul 25, 2025 から Vostochny Cosmodrome

Loading…

次のパス (今後24時間)

TLE

最新Source: Space-Track

元期: Sep 14, 2026, 13:53 UTC

1 64888U 25155N   26257.57873759  .00029632  00000-0  57957-3 0  9993
2 64888  97.4558 230.7933 0005945 162.6636 197.4818 15.47371418 94736

AllMySatでFSKL5695-11をリアルタイム追跡

Download on the App Store